• In Uzbekistan
  • List of Countries
  • For 7 days
  • Water Temperature
  • Weather Map
  • Weather Widgets
  • user-avatar
    Login

    Hourly Weather Bad Königshofen im Grabfeld

    Today, 22 September, Sunday

    Time Temperature Precipitation Wind Pressure Humidity
    00:00 +11°C° 0 mm 1 mps 737 mmHg 80%
    01:00 +11°C° 0 mm 1 mps 737 mmHg 80%
    02:00 +11°C° 0 mm 1 mps 737 mmHg 80%
    03:00 +10°C° 0 mm 1 mps 736 mmHg 80%
    04:00 +10°C° 0 mm 1 mps 736 mmHg 79%
    05:00 +10°C° 0 mm 1 mps 736 mmHg 78%
    06:00 +10°C° 0 mm 1 mps 736 mmHg 77%
    07:00 +10°C° 0 mm 1 mps 736 mmHg 76%
    08:00 +13°C° 0 mm 1 mps 736 mmHg 68%
    09:00 +15°C° 0 mm 1 mps 736 mmHg 61%
    10:00 +17°C° 0 mm 2 mps 736 mmHg 53%
    11:00 +19°C° 0 mm 2 mps 735 mmHg 50%
    12:00 +20°C° 0 mm 2 mps 735 mmHg 48%
    13:00 +23°C° 0 mm 2 mps 735 mmHg 45%
    14:00 +23°C° 0 mm 2 mps 735 mmHg 47%
    15:00 +23°C° 0 mm 1 mps 734 mmHg 48%
    16:00 +23°C° 0 mm 1 mps 734 mmHg 50%
    17:00 +21°C° 0 mm 1 mps 734 mmHg 56%
    18:00 +19°C° 0 mm 1 mps 734 mmHg 63%
    19:00 +15°C° 0 mm 0 mps 733 mmHg 69%
    20:00 +16°C° 0 mm 1 mps 733 mmHg 71%
    21:00 +15°C° 0 mm 1 mps 733 mmHg 73%
    22:00 +15°C° 0 mm 1 mps 733 mmHg 75%
    23:00 +14°C° 0 mm 1 mps 733 mmHg 76%

    Tomorrow, 23 September, Monday

    Time Temperature Precipitation Wind Pressure Humidity
    00:00 +14°C° 0 mm 1 mps 733 mmHg 77%
    01:00 +14°C° 0 mm 1 mps 733 mmHg 77%
    02:00 +14°C° 0 mm 1 mps 733 mmHg 78%
    03:00 +14°C° 0 mm 1 mps 733 mmHg 79%
    04:00 +14°C° 0 mm 1 mps 734 mmHg 79%
    05:00 +14°C° 0.1 mm 1 mps 734 mmHg 81%
    06:00 +14°C° 0.1 mm 1 mps 734 mmHg 83%
    07:00 +14°C° 0.1 mm 1 mps 735 mmHg 85%
    08:00 +14°C° 0.2 mm 2 mps 735 mmHg 87%
    09:00 +15°C° 0.2 mm 2 mps 736 mmHg 89%
    10:00 +14°C° 0.2 mm 3 mps 736 mmHg 90%
    11:00 +14°C° 1.3 mm 3 mps 736 mmHg 92%
    12:00 +13°C° 1.3 mm 3 mps 736 mmHg 93%
    13:00 +13°C° 1.3 mm 3 mps 737 mmHg 94%
    14:00 +13°C° 0.7 mm 3 mps 736 mmHg 94%
    15:00 +14°C° 0.7 mm 2 mps 736 mmHg 94%
    16:00 +14°C° 0.7 mm 1 mps 736 mmHg 94%
    17:00 +14°C° 0.1 mm 1 mps 736 mmHg 95%
    18:00 +14°C° 0.1 mm 1 mps 737 mmHg 96%
    19:00 +14°C° 0.1 mm 1 mps 737 mmHg 97%
    20:00 +13°C° 0 mm 1 mps 737 mmHg 97%
    21:00 +13°C° 0 mm 1 mps 737 mmHg 97%
    22:00 +13°C° 0 mm 1 mps 738 mmHg 97%
    23:00 +12°C° 0 mm 1 mps 737 mmHg 97%

    Day after tomorrow, 24 September, Tuesday

    Time Temperature Precipitation Wind Pressure Humidity
    00:00 +12°C° 0 mm 1 mps 737 mmHg 97%
    01:00 +11°C° 0 mm 1 mps 737 mmHg 97%
    02:00 +11°C° 0 mm 1 mps 737 mmHg 97%
    03:00 +11°C° 0 mm 1 mps 736 mmHg 96%
    04:00 +10°C° 0 mm 1 mps 736 mmHg 96%
    05:00 +10°C° 0 mm 1 mps 736 mmHg 96%
    06:00 +10°C° 0 mm 1 mps 735 mmHg 96%
    07:00 +10°C° 0 mm 1 mps 735 mmHg 96%
    08:00 +12°C° 0 mm 1 mps 735 mmHg 92%
    09:00 +13°C° 0 mm 1 mps 735 mmHg 87%
    10:00 +15°C° 0 mm 2 mps 735 mmHg 82%
    11:00 +16°C° 0 mm 2 mps 734 mmHg 77%
    12:00 +17°C° 0 mm 2 mps 733 mmHg 72%
    13:00 +18°C° 0 mm 3 mps 733 mmHg 66%
    14:00 +18°C° 0 mm 3 mps 733 mmHg 65%
    15:00 +19°C° 0 mm 3 mps 732 mmHg 64%
    16:00 +19°C° 0 mm 3 mps 732 mmHg 63%
    17:00 +17°C° 0.2 mm 3 mps 732 mmHg 72%
    18:00 +16°C° 0.2 mm 3 mps 732 mmHg 82%
    19:00 +13°C° 0.2 mm 3 mps 732 mmHg 91%
    20:00 +13°C° 0.5 mm 3 mps 732 mmHg 92%
    21:00 +13°C° 0.5 mm 2 mps 732 mmHg 93%
    22:00 +13°C° 0.5 mm 2 mps 732 mmHg 95%
    23:00 +12°C° 0.3 mm 3 mps 731 mmHg 95%

    25 September, Wednesday

    Time Temperature Precipitation Wind Pressure Humidity
    00:00 +12°C° 0.3 mm 3 mps 731 mmHg 96%
    01:00 +12°C° 0.3 mm 3 mps 731 mmHg 96%
    02:00 +12°C° 0.2 mm 3 mps 731 mmHg 96%
    03:00 +12°C° 0.2 mm 3 mps 731 mmHg 96%
    04:00 +12°C° 0.2 mm 3 mps 731 mmHg 96%
    05:00 +12°C° 0.7 mm 4 mps 731 mmHg 95%
    06:00 +12°C° 0.7 mm 4 mps 731 mmHg 93%
    07:00 +12°C° 0.7 mm 5 mps 731 mmHg 91%
    08:00 +13°C° 0.3 mm 5 mps 731 mmHg 87%
    09:00 +13°C° 0.3 mm 5 mps 731 mmHg 82%
    10:00 +14°C° 0.3 mm 6 mps 732 mmHg 77%
    11:00 +15°C° 0.1 mm 6 mps 732 mmHg 71%
    12:00 +15°C° 0.1 mm 6 mps 732 mmHg 65%
    13:00 +16°C° 0.1 mm 6 mps 732 mmHg 59%
    14:00 +16°C° 0.1 mm 5 mps 732 mmHg 60%
    15:00 +16°C° 0.1 mm 5 mps 732 mmHg 61%
    16:00 +17°C° 0.1 mm 4 mps 732 mmHg 63%
    17:00 +15°C° 0 mm 4 mps 732 mmHg 67%
    18:00 +13°C° 0 mm 3 mps 732 mmHg 72%
    19:00 +13°C° 0 mm 2 mps 733 mmHg 77%
    20:00 +12°C° 0 mm 3 mps 733 mmHg 79%
    21:00 +12°C° 0 mm 3 mps 733 mmHg 80%
    22:00 +12°C° 0 mm 3 mps 733 mmHg 82%
    23:00 +12°C° 0.1 mm 3 mps 733 mmHg 85%

    26 September, Thursday

    Time Temperature Precipitation Wind Pressure Humidity
    00:00 +12°C° 0.1 mm 4 mps 733 mmHg 87%
    01:00 +12°C° 0.1 mm 4 mps 733 mmHg 90%
    02:00 +12°C° 0.1 mm 4 mps 733 mmHg 90%
    03:00 +12°C° 0.1 mm 4 mps 733 mmHg 90%
    04:00 +12°C° 0.1 mm 4 mps 733 mmHg 90%
    05:00 +12°C° 0 mm 4 mps 733 mmHg 90%
    06:00 +12°C° 0 mm 4 mps 733 mmHg 90%
    07:00 +12°C° 0 mm 3 mps 734 mmHg 91%
    08:00 +12°C° 0 mm 4 mps 734 mmHg 88%
    09:00 +13°C° 0 mm 4 mps 734 mmHg 86%
    10:00 +14°C° 0 mm 4 mps 734 mmHg 84%
    11:00 +14°C° 0 mm 4 mps 734 mmHg 85%
    12:00 +14°C° 0 mm 3 mps 734 mmHg 85%
    13:00 +14°C° 0 mm 3 mps 734 mmHg 86%
    14:00 +14°C° 0 mm 3 mps 734 mmHg 85%
    15:00 +16°C° 0 mm 3 mps 734 mmHg 85%
    16:00 +16°C° 0 mm 3 mps 734 mmHg 84%
    17:00 +16°C° 0 mm 2 mps 734 mmHg 86%
    18:00 +15°C° 0 mm 2 mps 734 mmHg 87%
    19:00 +15°C° 0 mm 2 mps 735 mmHg 89%
    20:00 +15°C° 0 mm 2 mps 735 mmHg 90%
    21:00 +15°C° 0 mm 2 mps 735 mmHg 92%
    22:00 +15°C° 0 mm 2 mps 735 mmHg 94%
    23:00 +14°C° 0 mm 2 mps 735 mmHg 94%

    27 September, Friday

    Time Temperature Precipitation Wind Pressure Humidity
    00:00 +14°C° 0 mm 2 mps 735 mmHg 95%
    01:00 +14°C° 0 mm 2 mps 735 mmHg 96%
    02:00 +14°C° 0 mm 2 mps 734 mmHg 96%
    03:00 +13°C° 0 mm 1 mps 734 mmHg 97%
    04:00 +13°C° 0 mm 1 mps 734 mmHg 97%
    05:00 +13°C° 0 mm 1 mps 734 mmHg 97%
    06:00 +13°C° 0 mm 1 mps 734 mmHg 96%
    07:00 +13°C° 0 mm 1 mps 733 mmHg 96%
    08:00 +15°C° 0 mm 2 mps 733 mmHg 90%
    09:00 +16°C° 0 mm 2 mps 733 mmHg 83%
    10:00 +18°C° 0 mm 2 mps 733 mmHg 77%
    11:00 +19°C° 0 mm 3 mps 733 mmHg 73%
    12:00 +20°C° 0 mm 3 mps 733 mmHg 70%
    13:00 +21°C° 0 mm 3 mps 732 mmHg 66%
    14:00 +20°C° 0.2 mm 3 mps 732 mmHg 69%
    15:00 +20°C° 0.2 mm 3 mps 731 mmHg 72%
    16:00 +20°C° 0.2 mm 2 mps 731 mmHg 74%
    17:00 +19°C° 0.4 mm 2 mps 731 mmHg 79%
    18:00 +17°C° 0.4 mm 2 mps 731 mmHg 83%
    19:00 +16°C° 0.4 mm 1 mps 731 mmHg 88%
    20:00 +15°C° 3 mm 2 mps 731 mmHg 91%
    21:00 +15°C° 3 mm 2 mps 732 mmHg 93%
    22:00 +13°C° 3 mm 3 mps 732 mmHg 96%
    23:00 +13°C° 0.8 mm 3 mps 732 mmHg 96%
    Show more